Location: Sternwarte ZA, Rosenfeld-Brittheim
(48.2889°N, 8.6789°E)
Time: 20:04:12
(UTC+02:00)

ISS - Pass Details

Date: 20 July 2019
Orbit: 409 x 418 km, 51.6° (Epoch: 20 July)

Event Time Altitude Azimuth Distance (km) Brightness Sun altitude
Rises 03:02:56 0° 292° (WNW) 2,349 0.0 -18.0°
Reaches altitude 10° 03:05:02 10° 289° (WNW) 1,483 -1.0 -17.9°
Maximum altitude 03:08:19 61° 208° (SSW) 471 -3.9 -17.7°
Enters shadow 03:09:08 44° 151° (SSE) 582 -3.4 -17.6°
Exits shadow 03:11:55 - 127° (SE) 1,607 -0.9 -17.4°
Sets 03:13:41 0° 124° (SE) 2,330 -0.1 -17.3°
